This is the latest recevied weather packets stored in our database for station/object SV5DDT-12. If no packets are shown the sender has not sent any weather packets the latest 10 day(s).
| Time | Temp. | Humidity | Pressure | Rain* | Wind** | Luminosity | Snow |
|---|---|---|---|---|---|---|---|
| 1777995003 | 22.22° C | 48% | 1014.8 hPa | - | - | - | - |
| 1777994103 | 22.22° C | 48% | 1014.9 hPa | - | - | - | - |
| 1777993203 | 22.22° C | 48% | 1015 hPa | - | - | - | - |
| 1777992303 | 22.22° C | 47% | 1015.1 hPa | - | - | - | - |
| 1777991403 | 22.22° C | 48% | 1015.2 hPa | - | - | - | - |
| 1777990503 | 22.22° C | 48% | 1015.2 hPa | - | - | - | - |
| 1777989602 | 22.22° C | 49% | 1015.1 hPa | - | - | - | - |
| 1777988702 | 22.22° C | 51% | 1015.1 hPa | - | - | - | - |
| 1777987802 | 22.22° C | 51% | 1015.2 hPa | - | - | - | - |
| 1777986902 | 22.22° C | 54% | 1015.3 hPa | - | - | - | - |
| 1777986002 | 22.22° C | 52% | 1015.3 hPa | - | - | - | - |
| 1777985102 | 22.22° C | 51% | 1015.4 hPa | - | - | - | - |
| 1777984202 | 22.22° C | 52% | 1015.3 hPa | - | - | - | - |
| 1777983301 | 21.67° C | 50% | 1015.6 hPa | - | - | - | - |
| 1777982401 | 21.67° C | 47% | 1015.6 hPa | - | - | - | - |
| 1777981501 | 21.67° C | 47% | 1015.6 hPa | - | - | - | - |
| 1777980601 | 21.67° C | 46% | 1015.6 hPa | - | - | - | - |
| 1777979701 | 21.67° C | 46% | 1015.4 hPa | - | - | - | - |
| 1777978801 | 21.67° C | 46% | 1015.3 hPa | - | - | - | - |
| 1777977901 | 21.67° C | 46% | 1015.3 hPa | - | - | - | - |
| 1777977001 | 21.67° C | 46% | 1015.2 hPa | - | - | - | - |
| 1777976101 | 21.67° C | 45% | 1015.4 hPa | - | - | - | - |
| 1777975200 | 21.67° C | 45% | 1015.6 hPa | - | - | - | - |
| 1777974300 | 21.67° C | 44% | 1015.6 hPa | - | - | - | - |
| 1777973400 | 21.67° C | 44% | 1015.6 hPa | - | - | - | - |
* Rain since midnight (hover to see other rain measurements)
** Current wind speed in m/s (hover to see current wind gust speed)